Time,TemperatureF,DewpointF,PressureIn,WindDirection,WindDirectionDegrees,WindSpeedMPH,WindSpeedGustMPH,Humidity,HourlyPrecipIn,Conditions,Clouds,dailyrainin,SoftwareType,DateUTC
2013-07-09 00:00:00,60.0,42.0,-100.00,West,266,16.0,21.0,50,0.00,,,0.06,,2013-07-09 06:00:00,
2013-07-09 00:43:00,60.0,42.0,-100.00,West,266,16.0,21.0,50,0.00,,,0.06,,2013-07-09 06:43:00,
2013-07-09 00:53:00,60.0,42.0,-100.00,West,266,16.0,21.0,50,0.00,,,0.06,,2013-07-09 06:53:00,
2013-07-09 01:00:00,60.0,40.0,-100.00,West,274,15.0,21.0,47,0.00,,,0.06,,2013-07-09 07:00:00,
2013-07-09 01:43:00,60.0,40.0,-100.00,West,274,15.0,21.0,47,0.00,,,0.06,,2013-07-09 07:43:00,
2013-07-09 01:53:00,60.0,40.0,-100.00,West,274,15.0,21.0,47,0.00,,,0.06,,2013-07-09 07:53:00,
2013-07-09 02:00:00,60.0,38.0,-100.00,WSW,258,13.0,17.0,44,0.00,,,0.06,,2013-07-09 08:00:00,
2013-07-09 02:43:00,60.0,38.0,-100.00,WSW,258,13.0,17.0,44,0.00,,,0.06,,2013-07-09 08:43:00,
2013-07-09 02:52:00,60.0,38.0,-100.00,WSW,258,13.0,17.0,44,0.00,,,0.06,,2013-07-09 08:52:00,
2013-07-09 03:00:00,59.0,39.0,-100.00,WSW,257,11.0,15.0,48,0.00,,,0.06,,2013-07-09 09:00:00,
2013-07-09 03:42:00,59.0,39.0,-100.00,WSW,257,11.0,15.0,48,0.00,,,0.06,,2013-07-09 09:42:00,
2013-07-09 03:53:00,59.0,39.0,-100.00,WSW,257,11.0,15.0,48,0.00,,,0.06,,2013-07-09 09:53:00,
2013-07-09 04:00:00,60.0,40.0,-100.00,WSW,258,14.0,20.0,48,0.00,,,0.06,,2013-07-09 10:00:00,
2013-07-09 04:42:00,60.0,40.0,-100.00,WSW,258,14.0,20.0,48,0.00,,,0.06,,2013-07-09 10:42:00,
2013-07-09 04:52:00,60.0,40.0,-100.00,WSW,258,14.0,20.0,48,0.00,,,0.06,,2013-07-09 10:52:00,
2013-07-09 05:00:00,59.0,39.0,-100.00,West,264,14.0,19.0,48,0.00,,,0.06,,2013-07-09 11:00:00,
2013-07-09 05:42:00,59.0,39.0,-100.00,West,264,14.0,19.0,48,0.00,,,0.06,,2013-07-09 11:42:00,
2013-07-09 05:53:00,59.0,39.0,-100.00,West,264,14.0,19.0,48,0.00,,,0.06,,2013-07-09 11:53:00,
2013-07-09 06:00:00,58.0,39.0,-100.00,WSW,251,17.0,20.0,48,0.00,,,0.06,,2013-07-09 12:00:00,
2013-07-09 06:43:00,58.0,39.0,-100.00,WSW,251,17.0,20.0,48,0.00,,,0.06,,2013-07-09 12:43:00,
2013-07-09 06:53:00,58.0,39.0,-100.00,WSW,251,17.0,20.0,48,0.00,,,0.06,,2013-07-09 12:53:00,
2013-07-09 07:00:00,62.0,41.0,-100.00,West,274,10.0,13.0,45,0.00,,,0.05,,2013-07-09 13:00:00,
2013-07-09 07:43:00,62.0,41.0,-100.00,West,274,10.0,13.0,45,0.00,,,0.05,,2013-07-09 13:43:00,
2013-07-09 07:53:00,62.0,41.0,-100.00,West,274,10.0,13.0,45,0.00,,,0.05,,2013-07-09 13:53:00,
2013-07-09 08:00:00,69.0,42.0,-100.00,WSW,241,5.0,7.0,38,0.00,,,0.05,,2013-07-09 14:00:00,
2013-07-09 08:43:00,69.0,42.0,-100.00,WSW,241,5.0,7.0,38,0.00,,,0.05,,2013-07-09 14:43:00,
2013-07-09 08:53:00,69.0,42.0,-100.00,WSW,241,5.0,7.0,38,0.00,,,0.05,,2013-07-09 14:53:00,
2013-07-09 09:00:00,70.0,42.0,-100.00,NE,38,7.0,10.0,36,0.01,,,0.06,,2013-07-09 15:00:00,
2013-07-09 09:43:00,70.0,42.0,-100.00,NE,38,7.0,10.0,36,0.01,,,0.06,,2013-07-09 15:43:00,
2013-07-09 09:52:00,70.0,42.0,-100.00,NE,38,7.0,10.0,36,0.01,,,0.06,,2013-07-09 15:52:00,
2013-07-09 10:00:00,72.0,41.0,-100.00,East,93,2.0,5.0,32,0.00,,,0.06,,2013-07-09 16:00:00,
2013-07-09 10:43:00,72.0,41.0,-100.00,East,93,2.0,5.0,32,0.00,,,0.06,,2013-07-09 16:43:00,
2013-07-09 10:53:00,72.0,41.0,-100.00,East,93,2.0,5.0,32,0.00,,,0.06,,2013-07-09 16:53:00,
2013-07-09 11:00:00,75.0,43.0,-100.00,ENE,69,10.0,14.0,32,0.00,,,0.06,,2013-07-09 17:00:00,
2013-07-09 11:45:00,75.0,43.0,-100.00,ENE,69,10.0,14.0,32,0.00,,,0.06,,2013-07-09 17:45:00,
2013-07-09 11:53:00,75.0,43.0,-100.00,ENE,69,10.0,14.0,32,0.00,,,0.06,,2013-07-09 17:53:00,
2013-07-09 12:43:00,75.0,44.0,-100.00,ENE,74,6.0,8.0,33,0.00,,,0.06,,2013-07-09 18:43:00,
2013-07-09 12:52:00,75.0,44.0,-100.00,ENE,74,6.0,8.0,33,0.00,,,0.06,,2013-07-09 18:52:00,
2013-07-09 13:00:00,82.0,30.0,-100.00,SSW,212,11.0,16.0,15,0.00,,,0.06,,2013-07-09 19:00:00,
2013-07-09 13:42:00,82.0,30.0,-100.00,SSW,212,11.0,16.0,15,0.00,,,0.06,,2013-07-09 19:42:00,
2013-07-09 13:52:00,82.0,30.0,-100.00,SSW,212,11.0,16.0,15,0.00,,,0.06,,2013-07-09 19:52:00,
2013-07-09 14:00:00,81.0,29.0,-100.00,SW,222,10.0,17.0,15,0.00,,,0.06,,2013-07-09 20:00:00,
2013-07-09 14:42:00,81.0,29.0,-100.00,SW,222,10.0,17.0,15,0.00,,,0.06,,2013-07-09 20:42:00,
2013-07-09 14:52:00,81.0,29.0,-100.00,SW,222,10.0,17.0,15,0.00,,,0.06,,2013-07-09 20:52:00,
2013-07-09 15:00:00,81.0,27.0,-100.00,WSW,245,4.0,6.0,14,0.00,,,0.06,,2013-07-09 21:00:00,
2013-07-09 15:42:00,81.0,27.0,-100.00,WSW,245,4.0,6.0,14,0.00,,,0.06,,2013-07-09 21:42:00,
2013-07-09 15:52:00,81.0,27.0,-100.00,WSW,245,4.0,6.0,14,0.00,,,0.06,,2013-07-09 21:52:00,
2013-07-09 16:00:00,82.0,24.0,-100.00,West,261,8.0,13.0,12,0.00,,,0.06,,2013-07-09 22:00:00,
2013-07-09 16:42:00,82.0,24.0,-100.00,West,261,8.0,13.0,12,0.00,,,0.06,,2013-07-09 22:42:00,
2013-07-09 16:53:00,82.0,24.0,-100.00,West,261,8.0,13.0,12,0.00,,,0.06,,2013-07-09 22:53:00,
2013-07-09 17:00:00,82.0,26.0,-100.00,SW,218,4.0,8.0,13,0.00,,,0.06,,2013-07-09 23:00:00,
2013-07-09 17:43:00,82.0,26.0,-100.00,SW,218,4.0,8.0,13,0.00,,,0.06,,2013-07-09 23:43:00,
2013-07-09 17:53:00,82.0,26.0,-100.00,SW,218,4.0,8.0,13,0.00,,,0.06,,2013-07-09 23:53:00,
2013-07-09 18:00:00,80.0,29.0,-100.00,SW,225,3.0,4.0,15,0.00,,,0.06,,2013-07-10 00:00:00,
2013-07-09 18:42:00,80.0,29.0,-100.00,SW,225,3.0,4.0,15,0.00,,,0.06,,2013-07-10 00:42:00,
2013-07-09 18:52:00,80.0,29.0,-100.00,SW,225,3.0,4.0,15,0.00,,,0.06,,2013-07-10 00:52:00,
2013-07-09 19:00:00,78.0,36.0,-100.00,NE,42,2.0,4.0,22,0.00,,,0.06,,2013-07-10 01:00:00,
2013-07-09 19:43:00,78.0,36.0,-100.00,NE,42,2.0,4.0,22,0.00,,,0.06,,2013-07-10 01:43:00,
2013-07-09 19:53:00,78.0,36.0,-100.00,NE,42,2.0,4.0,22,0.00,,,0.06,,2013-07-10 01:53:00,
2013-07-09 20:00:00,75.0,38.0,-100.00,North,10,0.0,4.0,26,0.00,,,0.01,,2013-07-10 02:00:00,
2013-07-09 20:43:00,75.0,38.0,-100.00,North,10,0.0,4.0,26,0.00,,,0.01,,2013-07-10 02:43:00,
2013-07-09 20:53:00,75.0,38.0,-100.00,North,10,0.0,4.0,26,0.00,,,0.01,,2013-07-10 02:53:00,
2013-07-09 21:00:00,71.0,34.0,-100.00,WSW,240,3.0,4.0,26,0.00,,,0.01,,2013-07-10 03:00:00,
2013-07-09 21:43:00,71.0,34.0,-100.00,WSW,240,3.0,4.0,26,0.00,,,0.01,,2013-07-10 03:43:00,
2013-07-09 21:52:00,71.0,34.0,-100.00,WSW,240,3.0,4.0,26,0.00,,,0.01,,2013-07-10 03:52:00,
2013-07-09 22:00:00,69.0,35.0,-100.00,SW,228,2.0,5.0,28,0.00,,,0.01,,2013-07-10 04:00:00,
2013-07-09 22:43:00,69.0,35.0,-100.00,SW,228,2.0,5.0,28,0.00,,,0.01,,2013-07-10 04:43:00,
2013-07-09 22:52:00,69.0,35.0,-100.00,SW,228,2.0,5.0,28,0.00,,,0.01,,2013-07-10 04:52:00,
2013-07-09 23:00:00,68.0,37.0,-100.00,SW,215,4.0,5.0,32,0.00,,,0.01,,2013-07-10 05:00:00,
2013-07-09 23:42:00,68.0,37.0,-100.00,SW,215,4.0,5.0,32,0.00,,,0.01,,2013-07-10 05:42:00,
2013-07-09 23:53:00,68.0,37.0,-100.00,SW,215,4.0,5.0,32,0.00,,,0.01,,2013-07-10 05:53:00,